ARABSAT-1A 1 15560U 85015A 21057.27216591 -.00000220 00000-0 00000-0 0 9999 2 15560 14.0670 346.2424 0006129 13.7356 222.9221 1.00408484106573 BRASILSAT 1 1 15561U 85015B 21057.55341517 -.00000141 00000-0 00000-0 0 9990 2 15561 15.1323 0.0970 0007032 349.9790 180.9211 0.99553997 27067 ARIANE 3 R/B 1 15562U 85015C 21057.08637122 .00000963 00000-0 10069-2 0 9998 2 15562 6.7832 221.2554 6712009 154.7606 264.3703 2.97723512306598